Back to catalog

CZ-4C DEB

LostLEO
NORAD 43419·DEBRIS·🇨🇳 China

Launched Dec 10, 2014 from Jiuquan Satellite Launch Center

Loading…

Next Passes (next 24 hours)

TLE

StaleSource: Space-Track

Epoch: Sep 10, 2020, 14:38 UTC

1 43419U 14080H   20254.60972807 -.00000547  00000-0 -67243-3 0  9999
2 43419  63.3823 325.2719 0203303   1.7603 358.4095 13.46068604267619

Track CZ-4C DEB in real time with AllMySat

Download on the App Store